EN

Hourly Weather Altagracia Norte

Today, 28 January, Thursday

Time Temperature Precipitation Wind Pressure Humidity
00:00 +26°C° 0 mm 5 mps 746 mmHg 74%
01:00 +26°C° 0 mm 5 mps 745 mmHg 75%
02:00 +25°C° 0 mm 4 mps 745 mmHg 76%
03:00 +25°C° 0 mm 4 mps 745 mmHg 77%
04:00 +25°C° 0 mm 4 mps 745 mmHg 77%
05:00 +25°C° 0 mm 4 mps 746 mmHg 77%
06:00 +25°C° 0 mm 4 mps 746 mmHg 76%
07:00 +26°C° 0 mm 5 mps 746 mmHg 67%
08:00 +28°C° 0 mm 6 mps 747 mmHg 57%
09:00 +30°C° 0 mm 7 mps 747 mmHg 48%
10:00 +32°C° 0 mm 7 mps 747 mmHg 45%
11:00 +33°C° 0 mm 8 mps 747 mmHg 43%
12:00 +34°C° 0 mm 8 mps 746 mmHg 41%
13:00 +35°C° 0 mm 8 mps 746 mmHg 41%
14:00 +35°C° 0 mm 8 mps 745 mmHg 42%
15:00 +35°C° 0 mm 8 mps 744 mmHg 43%
16:00 +33°C° 0 mm 7 mps 744 mmHg 48%
17:00 +32°C° 0 mm 7 mps 745 mmHg 53%
18:00 +29°C° 0 mm 6 mps 745 mmHg 58%
19:00 +28°C° 0 mm 6 mps 745 mmHg 60%
20:00 +28°C° 0 mm 6 mps 746 mmHg 62%
21:00 +27°C° 0 mm 6 mps 746 mmHg 64%
22:00 +26°C° 0 mm 6 mps 746 mmHg 67%
23:00 +26°C° 0 mm 6 mps 746 mmHg 70%

Tomorrow, 29 January, Friday

Time Temperature Precipitation Wind Pressure Humidity
00:00 +24°C° 0 mm 6 mps 746 mmHg 73%
01:00 +25°C° 0 mm 5 mps 745 mmHg 73%
02:00 +25°C° 0 mm 5 mps 745 mmHg 72%
03:00 +25°C° 0 mm 5 mps 744 mmHg 72%
04:00 +25°C° 0 mm 5 mps 745 mmHg 73%
05:00 +25°C° 0 mm 5 mps 745 mmHg 74%
06:00 +23°C° 0 mm 4 mps 745 mmHg 75%
07:00 +26°C° 0 mm 5 mps 745 mmHg 67%
08:00 +28°C° 0 mm 6 mps 746 mmHg 59%
09:00 +29°C° 0 mm 6 mps 746 mmHg 52%
10:00 +32°C° 0 mm 7 mps 746 mmHg 47%
11:00 +33°C° 0 mm 7 mps 745 mmHg 42%
12:00 +34°C° 0 mm 8 mps 745 mmHg 37%
13:00 +34°C° 0 mm 8 mps 744 mmHg 38%
14:00 +34°C° 0 mm 8 mps 743 mmHg 39%
15:00 +34°C° 0 mm 8 mps 743 mmHg 40%
16:00 +33°C° 0 mm 7 mps 743 mmHg 43%
17:00 +32°C° 0 mm 6 mps 743 mmHg 47%
18:00 +29°C° 0 mm 6 mps 743 mmHg 51%
19:00 +29°C° 0 mm 5 mps 744 mmHg 56%
20:00 +28°C° 0 mm 5 mps 744 mmHg 61%
21:00 +27°C° 0 mm 5 mps 745 mmHg 66%
22:00 +26°C° 0 mm 5 mps 745 mmHg 69%
23:00 +26°C° 0 mm 5 mps 745 mmHg 72%

Day after tomorrow, 30 January, Saturday

Time Temperature Precipitation Wind Pressure Humidity
00:00 +25°C° 0 mm 4 mps 745 mmHg 75%
01:00 +25°C° 0 mm 4 mps 745 mmHg 74%
02:00 +23°C° 0 mm 4 mps 744 mmHg 74%
03:00 +24°C° 0 mm 3 mps 744 mmHg 73%
04:00 +23°C° 0 mm 4 mps 744 mmHg 75%
05:00 +23°C° 0 mm 4 mps 744 mmHg 77%
06:00 +23°C° 0 mm 4 mps 745 mmHg 79%
07:00 +25°C° 0 mm 5 mps 745 mmHg 71%
08:00 +27°C° 0 mm 6 mps 745 mmHg 63%
09:00 +29°C° 0 mm 7 mps 746 mmHg 55%
10:00 +32°C° 0 mm 7 mps 745 mmHg 49%
11:00 +33°C° 0 mm 8 mps 745 mmHg 43%
12:00 +35°C° 0 mm 8 mps 744 mmHg 37%
13:00 +35°C° 0 mm 7 mps 743 mmHg 38%
14:00 +35°C° 0 mm 7 mps 743 mmHg 38%
15:00 +35°C° 0 mm 7 mps 742 mmHg 39%
16:00 +34°C° 0 mm 7 mps 742 mmHg 44%
17:00 +32°C° 0 mm 6 mps 742 mmHg 49%
18:00 +30°C° 0 mm 6 mps 742 mmHg 54%
19:00 +29°C° 0 mm 6 mps 743 mmHg 58%
20:00 +28°C° 0 mm 5 mps 744 mmHg 62%
21:00 +27°C° 0 mm 5 mps 744 mmHg 65%
22:00 +27°C° 0 mm 5 mps 744 mmHg 68%
23:00 +27°C° 0 mm 5 mps 744 mmHg 70%

31 January, Sunday

Time Temperature Precipitation Wind Pressure Humidity
00:00 +26°C° 0 mm 6 mps 744 mmHg 72%
01:00 +26°C° 0 mm 5 mps 744 mmHg 74%
02:00 +26°C° 0 mm 5 mps 744 mmHg 76%
03:00 +25°C° 0 mm 5 mps 744 mmHg 78%
04:00 +25°C° 0 mm 5 mps 744 mmHg 79%
05:00 +25°C° 0 mm 5 mps 744 mmHg 79%
06:00 +25°C° 0 mm 4 mps 745 mmHg 80%
07:00 +26°C° 0 mm 5 mps 745 mmHg 72%
08:00 +28°C° 0 mm 6 mps 745 mmHg 65%
09:00 +29°C° 0 mm 7 mps 746 mmHg 57%
10:00 +32°C° 0 mm 7 mps 745 mmHg 50%
11:00 +34°C° 0 mm 7 mps 745 mmHg 44%
12:00 +35°C° 0 mm 7 mps 744 mmHg 38%
13:00 +35°C° 0 mm 7 mps 743 mmHg 39%
14:00 +35°C° 0 mm 7 mps 742 mmHg 40%
15:00 +35°C° 0 mm 6 mps 742 mmHg 41%
16:00 +34°C° 0 mm 6 mps 742 mmHg 47%
17:00 +32°C° 0 mm 6 mps 742 mmHg 54%
18:00 +29°C° 0 mm 6 mps 743 mmHg 60%
19:00 +28°C° 0 mm 5 mps 743 mmHg 65%
20:00 +27°C° 0 mm 5 mps 744 mmHg 69%
21:00 +27°C° 0 mm 4 mps 745 mmHg 73%
22:00 +26°C° 0 mm 4 mps 745 mmHg 75%
23:00 +26°C° 0 mm 4 mps 745 mmHg 77%

1 February, Monday

Time Temperature Precipitation Wind Pressure Humidity
00:00 +26°C° 0 mm 4 mps 745 mmHg 79%
01:00 +25°C° 0 mm 4 mps 744 mmHg 79%
02:00 +25°C° 0 mm 3 mps 744 mmHg 80%
03:00 +25°C° 0 mm 3 mps 744 mmHg 80%
04:00 +25°C° 0 mm 3 mps 744 mmHg 80%
05:00 +24°C° 0 mm 3 mps 744 mmHg 79%
06:00 +24°C° 0 mm 3 mps 745 mmHg 79%
07:00 +26°C° 0 mm 4 mps 745 mmHg 71%
08:00 +28°C° 0 mm 4 mps 745 mmHg 63%
09:00 +30°C° 0 mm 5 mps 746 mmHg 55%
10:00 +32°C° 0 mm 6 mps 745 mmHg 49%
11:00 +34°C° 0 mm 6 mps 745 mmHg 43%
12:00 +35°C° 0 mm 7 mps 744 mmHg 37%
13:00 +36°C° 0 mm 7 mps 743 mmHg 35%
14:00 +36°C° 0 mm 7 mps 743 mmHg 33%
15:00 +36°C° 0 mm 7 mps 742 mmHg 30%
16:00 +35°C° 0 mm 7 mps 742 mmHg 35%
17:00 +33°C° 0 mm 6 mps 742 mmHg 39%
18:00 +30°C° 0 mm 6 mps 743 mmHg 43%
19:00 +29°C° 0 mm 6 mps 743 mmHg 51%
20:00 +28°C° 0 mm 5 mps 744 mmHg 58%
21:00 +27°C° 0 mm 5 mps 745 mmHg 65%
22:00 +27°C° 0 mm 5 mps 745 mmHg 68%
23:00 +26°C° 0 mm 4 mps 745 mmHg 71%

2 February, Tuesday

Time Temperature Precipitation Wind Pressure Humidity
00:00 +26°C° 0 mm 4 mps 745 mmHg 73%
01:00 +25°C° 0 mm 4 mps 744 mmHg 74%
02:00 +25°C° 0 mm 4 mps 744 mmHg 75%
03:00 +24°C° 0 mm 3 mps 744 mmHg 76%
04:00 +24°C° 0 mm 3 mps 744 mmHg 76%
05:00 +24°C° 0 mm 3 mps 744 mmHg 77%
06:00 +24°C° 0 mm 3 mps 744 mmHg 77%
07:00 +25°C° 0 mm 4 mps 745 mmHg 69%
08:00 +27°C° 0 mm 5 mps 745 mmHg 61%
09:00 +29°C° 0 mm 6 mps 746 mmHg 53%
10:00 +32°C° 0 mm 6 mps 745 mmHg 48%
11:00 +33°C° 0 mm 7 mps 745 mmHg 44%
12:00 +35°C° 0 mm 7 mps 744 mmHg 39%
13:00 +35°C° 0 mm 7 mps 743 mmHg 39%
14:00 +35°C° 0 mm 7 mps 742 mmHg 39%
15:00 +35°C° 0 mm 7 mps 741 mmHg 40%
16:00 +34°C° 0 mm 7 mps 742 mmHg 44%
17:00 +33°C° 0 mm 6 mps 742 mmHg 49%
18:00 +30°C° 0 mm 6 mps 742 mmHg 53%
19:00 +29°C° 0 mm 6 mps 743 mmHg 58%
20:00 +28°C° 0 mm 5 mps 744 mmHg 63%
21:00 +27°C° 0 mm 5 mps 744 mmHg 68%
22:00 +27°C° 0 mm 5 mps 744 mmHg 70%
23:00 +26°C° 0 mm 4 mps 745 mmHg 72%
Show more